Time,TemperatureF,DewpointF,PressureIn,WindDirection,WindDirectionDegrees,WindSpeedMPH,WindSpeedGustMPH,Humidity,HourlyPrecipIn,Conditions,Clouds,dailyrainin,SoftwareType,DateUTC
2013-02-07 00:01:00,44.5,35.3,30.00,NE,56,0.0,2.0,70,0.00,,CLR,0.00,VWS V14.01,2013-02-07 06:01:00,
2013-02-07 00:05:00,44.6,35.1,30.00,NE,56,2.0,2.0,69,0.00,,CLR,0.00,VWS V14.01,2013-02-07 06:05:00,
2013-02-07 00:10:00,44.6,35.1,30.00,NE,56,0.0,2.0,69,0.00,,CLR,0.00,VWS V14.01,2013-02-07 06:10:00,
2013-02-07 00:15:00,44.6,35.1,30.00,NE,56,3.0,3.0,69,0.00,,CLR,0.00,VWS V14.01,2013-02-07 06:15:00,
2013-02-07 00:25:00,44.6,35.1,30.00,NE,56,0.0,2.0,69,0.00,,CLR,0.00,VWS V14.01,2013-02-07 06:25:00,
2013-02-07 00:35:00,44.6,35.1,30.00,NE,56,0.0,3.0,69,0.00,,CLR,0.00,VWS V14.01,2013-02-07 06:35:00,
2013-02-07 00:40:00,44.6,35.1,30.00,NE,56,0.0,1.0,69,0.00,,CLR,0.00,VWS V14.01,2013-02-07 06:40:00,
2013-02-07 00:50:00,44.5,35.3,30.00,NE,56,0.0,1.0,70,0.00,,CLR,0.00,VWS V14.01,2013-02-07 06:50:00,
2013-02-07 01:00:00,44.2,35.8,29.99,NE,56,0.0,3.0,72,0.00,,CLR,0.00,VWS V14.01,2013-02-07 07:00:00,
2013-02-07 01:10:00,44.1,35.7,29.99,NE,56,1.0,2.0,72,0.00,,CLR,0.00,VWS V14.01,2013-02-07 07:10:00,
2013-02-07 01:20:00,44.1,35.3,29.98,ENE,58,1.0,3.0,71,0.00,,CLR,0.00,VWS V14.01,2013-02-07 07:20:00,
2013-02-07 01:25:00,44.2,35.4,29.98,ENE,67,2.0,4.0,71,0.00,,CLR,0.00,VWS V14.01,2013-02-07 07:25:00,
2013-02-07 01:30:00,44.3,35.2,29.98,ENE,78,2.0,5.0,70,0.00,,CLR,0.00,VWS V14.01,2013-02-07 07:30:00,
2013-02-07 01:40:00,44.8,34.9,29.98,ENE,66,2.0,3.0,68,0.00,,CLR,0.00,VWS V14.01,2013-02-07 07:40:00,
2013-02-07 01:50:00,44.8,35.3,30.00,ENE,66,0.0,1.0,69,0.00,,CLR,0.00,VWS V14.01,2013-02-07 07:50:00,
2013-02-07 01:55:00,44.6,35.4,30.00,ENE,66,1.0,2.0,70,0.00,,CLR,0.00,VWS V14.01,2013-02-07 07:55:00,
2013-02-07 02:00:00,44.5,35.3,29.98,ENE,66,2.0,3.0,70,0.00,,CLR,0.00,VWS V14.01,2013-02-07 08:00:00,
2013-02-07 02:05:00,44.5,35.3,29.98,ENE,66,0.0,3.0,70,0.00,,CLR,0.00,VWS V14.01,2013-02-07 08:05:00,
2013-02-07 02:15:00,44.5,35.3,29.98,ENE,66,0.0,1.0,70,0.00,,CLR,0.00,VWS V14.01,2013-02-07 08:15:00,
2013-02-07 02:20:00,44.5,35.7,29.98,ENE,66,0.0,2.0,71,0.00,,CLR,0.00,VWS V14.01,2013-02-07 08:20:00,
2013-02-07 02:30:00,44.3,35.9,29.97,ENE,66,1.0,2.0,72,0.00,,CLR,0.00,VWS V14.01,2013-02-07 08:30:00,
2013-02-07 02:40:00,43.9,35.8,29.97,ENE,66,3.0,4.0,73,0.00,,BKN110,0.00,VWS V14.01,2013-02-07 08:40:00,
2013-02-07 02:45:00,43.9,35.1,29.96,ENE,71,4.0,4.0,71,0.00,,BKN110,0.00,VWS V14.01,2013-02-07 08:45:00,
2013-02-07 02:55:00,44.3,34.8,29.96,ENE,74,2.0,5.0,69,0.00,,BKN110,0.00,VWS V14.01,2013-02-07 08:55:00,
2013-02-07 03:00:00,44.5,34.6,29.95,ENE,75,2.0,4.0,68,0.00,,BKN110,0.00,VWS V14.01,2013-02-07 09:00:00,
2013-02-07 03:10:00,44.6,35.1,29.95,ENE,75,0.0,2.0,69,0.00,,BKN110,0.00,VWS V14.01,2013-02-07 09:10:00,
2013-02-07 03:15:00,44.5,35.0,29.95,ENE,75,1.0,3.0,69,0.00,,BKN110,0.00,VWS V14.01,2013-02-07 09:15:00,
2013-02-07 03:25:00,44.1,34.6,29.95,ENE,75,2.0,3.0,69,0.00,,BKN110,0.00,VWS V14.01,2013-02-07 09:25:00,
2013-02-07 03:30:00,43.9,34.4,29.94,ENE,75,2.0,2.0,69,0.00,,BKN110,0.00,VWS V14.01,2013-02-07 09:30:00,
2013-02-07 03:35:00,43.9,34.4,29.94,ENE,75,3.0,3.0,69,0.00,,BKN110,0.00,VWS V14.01,2013-02-07 09:35:00,
2013-02-07 03:40:00,43.8,34.3,29.94,ENE,75,2.0,3.0,69,0.00,,BKN110,0.00,VWS V14.01,2013-02-07 09:40:00,
2013-02-07 03:50:00,43.5,34.4,29.94,East,96,2.0,5.0,70,0.00,,BKN110,0.00,VWS V14.01,2013-02-07 09:50:00,
2013-02-07 03:55:00,43.3,33.8,29.94,East,96,3.0,3.0,69,0.00,,BKN110,0.00,VWS V14.01,2013-02-07 09:55:00,
2013-02-07 04:00:00,43.3,33.8,29.93,East,96,1.0,5.0,69,0.00,,BKN110,0.00,VWS V14.01,2013-02-07 10:00:00,
2013-02-07 04:10:00,43.5,34.0,29.93,East,96,1.0,3.0,69,0.00,,SCT120,0.00,VWS V14.01,2013-02-07 10:10:00,
2013-02-07 04:15:00,43.6,33.8,29.94,East,96,3.0,3.0,68,0.00,,SCT120,0.00,VWS V14.01,2013-02-07 10:15:00,
2013-02-07 04:20:00,43.8,33.9,29.94,East,96,0.0,3.0,68,0.00,,SCT120,0.00,VWS V14.01,2013-02-07 10:20:00,
2013-02-07 04:25:00,43.9,34.0,29.94,East,96,1.0,3.0,68,0.00,,SCT120,0.00,VWS V14.01,2013-02-07 10:25:00,
2013-02-07 04:30:00,43.8,34.3,29.94,East,84,0.0,3.0,69,0.00,,SCT120,0.00,VWS V14.01,2013-02-07 10:30:00,
2013-02-07 04:35:00,43.8,34.7,29.94,East,84,1.0,2.0,70,0.00,,CLR,0.00,VWS V14.01,2013-02-07 10:35:00,
2013-02-07 04:45:00,43.2,34.5,29.93,East,84,2.0,2.0,71,0.00,,CLR,0.00,VWS V14.01,2013-02-07 10:45:00,
2013-02-07 04:50:00,43.2,34.5,29.93,East,84,0.0,3.0,71,0.00,,CLR,0.00,VWS V14.01,2013-02-07 10:50:00,
2013-02-07 04:55:00,43.5,34.0,29.93,East,84,1.0,3.0,69,0.00,,CLR,0.00,VWS V14.01,2013-02-07 10:55:00,
2013-02-07 05:00:00,43.6,34.1,29.93,East,84,0.0,2.0,69,0.00,,CLR,0.00,VWS V14.01,2013-02-07 11:00:00,
2013-02-07 05:05:00,43.8,34.3,29.93,East,84,0.0,0.0,69,0.00,,CLR,0.00,VWS V14.01,2013-02-07 11:05:00,
2013-02-07 05:15:00,43.8,34.7,29.93,East,84,2.0,3.0,70,0.00,,CLR,0.00,VWS V14.01,2013-02-07 11:15:00,
2013-02-07 05:25:00,42.9,34.8,29.93,ENE,64,0.0,2.0,73,0.00,,CLR,0.00,VWS V14.01,2013-02-07 11:25:00,
2013-02-07 05:35:00,41.8,34.8,29.92,ENE,64,1.0,1.0,76,0.00,,OVC050,0.00,VWS V14.01,2013-02-07 11:35:00,
2013-02-07 05:40:00,41.3,34.7,29.92,ENE,64,2.0,3.0,77,0.00,,OVC050,0.00,VWS V14.01,2013-02-07 11:40:00,
2013-02-07 05:50:00,41.1,34.5,29.92,ENE,64,0.0,2.0,77,0.00,,OVC050,0.00,VWS V14.01,2013-02-07 11:50:00,
2013-02-07 05:55:00,41.1,34.5,29.92,ENE,64,0.0,0.0,77,0.00,,OVC050,0.00,VWS V14.01,2013-02-07 11:55:00,
2013-02-07 06:05:00,40.8,34.2,29.92,ENE,64,1.0,2.0,77,0.00,,OVC050,0.00,VWS V14.01,2013-02-07 12:05:00,
2013-02-07 06:15:00,40.6,34.0,29.92,ENE,64,0.0,2.0,77,0.00,,OVC050,0.00,VWS V14.01,2013-02-07 12:15:00,
2013-02-07 06:25:00,40.8,33.8,29.92,ENE,63,2.0,4.0,76,0.00,,OVC050,0.00,VWS V14.01,2013-02-07 12:25:00,
2013-02-07 06:30:00,40.6,34.0,29.92,NE,48,2.0,4.0,77,0.00,,OVC050,0.00,VWS V14.01,2013-02-07 12:30:00,
2013-02-07 06:35:00,40.2,33.6,29.92,NE,42,2.0,4.0,77,0.00,,OVC050,0.00,VWS V14.01,2013-02-07 12:35:00,
2013-02-07 06:40:00,39.9,33.3,29.92,NE,42,2.0,3.0,77,0.00,,OVC050,0.00,VWS V14.01,2013-02-07 12:40:00,
2013-02-07 06:45:00,39.8,33.5,29.92,NE,42,0.0,3.0,78,0.00,,OVC050,0.00,VWS V14.01,2013-02-07 12:45:00,
2013-02-07 06:55:00,39.8,33.2,29.92,NE,42,2.0,3.0,77,0.00,,OVC050,0.00,VWS V14.01,2013-02-07 12:55:00,
2013-02-07 07:05:00,40.3,33.3,29.92,NE,42,2.0,3.0,76,0.00,,OVC050,0.00,VWS V14.01,2013-02-07 13:05:00,
2013-02-07 07:15:00,40.8,33.2,29.91,NE,42,2.0,4.0,74,0.00,,OVC050,0.00,VWS V14.01,2013-02-07 13:15:00,
2013-02-07 07:20:00,40.8,33.2,29.91,NE,42,3.0,3.0,74,0.00,,OVC050,0.00,VWS V14.01,2013-02-07 13:20:00,
2013-02-07 07:25:00,40.8,33.5,29.91,NE,42,0.0,3.0,75,0.00,,OVC050,0.00,VWS V14.01,2013-02-07 13:25:00,
2013-02-07 07:35:00,40.5,33.5,29.92,NE,42,1.0,3.0,76,0.00,,OVC055,0.00,VWS V14.01,2013-02-07 13:35:00,
2013-02-07 07:40:00,40.8,34.2,29.92,NE,42,0.0,2.0,77,0.00,,OVC055,0.00,VWS V14.01,2013-02-07 13:40:00,
2013-02-07 07:45:00,41.1,34.5,29.92,NE,42,0.0,2.0,77,0.00,,OVC055,0.00,VWS V14.01,2013-02-07 13:45:00,
2013-02-07 07:50:00,41.6,34.6,29.92,NE,42,2.0,3.0,76,0.00,,OVC055,0.00,VWS V14.01,2013-02-07 13:50:00,
2013-02-07 07:55:00,42.1,34.8,29.92,NE,42,3.0,4.0,75,0.00,,OVC055,0.00,VWS V14.01,2013-02-07 13:55:00,
2013-02-07 08:05:00,43.2,35.1,29.93,NE,42,0.0,2.0,73,0.00,,OVC055,0.00,VWS V14.01,2013-02-07 14:05:00,
2013-02-07 08:15:00,43.9,35.5,29.92,NE,42,0.0,2.0,72,0.00,,OVC055,0.00,VWS V14.01,2013-02-07 14:15:00,
2013-02-07 08:20:00,44.1,36.0,29.92,NE,42,1.0,3.0,73,0.00,,OVC055,0.00,VWS V14.01,2013-02-07 14:20:00,
2013-02-07 08:30:00,44.6,36.5,29.92,NE,42,0.0,3.0,73,0.00,,OVC055,0.00,VWS V14.01,2013-02-07 14:30:00,
2013-02-07 08:35:00,44.9,37.1,29.92,NE,42,1.0,2.0,74,0.00,,OVC050,0.00,VWS V14.01,2013-02-07 14:35:00,
2013-02-07 08:45:00,45.8,37.3,29.92,NE,42,2.0,3.0,72,0.00,,OVC050,0.00,VWS V14.01,2013-02-07 14:45:00,
2013-02-07 08:50:00,46.4,37.5,29.92,NE,42,1.0,3.0,71,0.00,,OVC050,0.00,VWS V14.01,2013-02-07 14:50:00,
2013-02-07 09:00:00,47.4,37.4,29.92,ENE,76,3.0,4.0,68,0.00,,OVC050,0.00,VWS V14.01,2013-02-07 15:00:00,
2013-02-07 09:10:00,48.3,38.2,29.92,East,93,3.0,6.0,68,0.00,,OVC050,0.00,VWS V14.01,2013-02-07 15:10:00,
2013-02-07 09:15:00,48.8,38.0,29.91,East,94,5.0,7.0,66,0.00,,OVC050,0.00,VWS V14.01,2013-02-07 15:15:00,
2013-02-07 09:25:00,50.1,38.4,29.91,ESE,108,7.0,7.0,64,0.00,,OVC050,0.00,VWS V14.01,2013-02-07 15:25:00,
2013-02-07 09:35:00,50.8,39.1,29.91,ESE,107,3.0,7.0,64,0.00,,OVC050,0.00,VWS V14.01,2013-02-07 15:35:00,
2013-02-07 09:40:00,51.1,39.0,29.91,ESE,114,3.0,6.0,63,0.00,,OVC050,0.00,VWS V14.01,2013-02-07 15:40:00,
2013-02-07 09:45:00,51.4,39.2,29.91,ESE,123,3.0,5.0,63,0.00,,OVC050,0.00,VWS V14.01,2013-02-07 15:45:00,
2013-02-07 09:55:00,52.0,40.2,29.91,ESE,114,2.0,7.0,64,0.00,,OVC050,0.00,VWS V14.01,2013-02-07 15:55:00,
2013-02-07 10:05:00,52.6,40.8,29.91,ESE,117,3.0,5.0,64,0.00,,OVC050,0.00,VWS V14.01,2013-02-07 16:05:00,
2013-02-07 10:10:00,52.8,41.0,29.91,ESE,106,4.0,7.0,64,0.00,,OVC050,0.00,VWS V14.01,2013-02-07 16:10:00,
2013-02-07 10:15:00,53.1,41.7,29.91,ESE,109,0.0,5.0,65,0.00,,OVC050,0.00,VWS V14.01,2013-02-07 16:15:00,
2013-02-07 10:20:00,53.3,41.5,29.91,SE,136,2.0,4.0,64,0.00,,OVC050,0.00,VWS V14.01,2013-02-07 16:20:00,
2013-02-07 10:30:00,54.1,42.6,29.91,SE,136,2.0,5.0,65,0.00,,OVC050,0.00,VWS V14.01,2013-02-07 16:30:00,
2013-02-07 10:35:00,54.1,42.6,29.91,SE,144,2.0,4.0,65,0.00,,OVC080,0.00,VWS V14.01,2013-02-07 16:35:00,
2013-02-07 10:45:00,54.7,44.0,29.92,SSE,153,2.0,3.0,67,0.00,,OVC080,0.00,VWS V14.01,2013-02-07 16:45:00,
2013-02-07 10:55:00,55.4,44.2,29.92,SSE,163,5.0,5.0,66,0.00,,OVC080,0.00,VWS V14.01,2013-02-07 16:55:00,
2013-02-07 11:00:00,55.7,44.9,29.91,South,177,4.0,5.0,67,0.00,,OVC080,0.00,VWS V14.01,2013-02-07 17:00:00,
2013-02-07 11:05:00,56.0,45.2,29.91,South,178,3.0,4.0,67,0.00,,OVC075,0.00,VWS V14.01,2013-02-07 17:05:00,
2013-02-07 11:15:00,56.3,45.9,29.90,South,171,1.0,6.0,68,0.00,,OVC075,0.00,VWS V14.01,2013-02-07 17:15:00,
2013-02-07 11:20:00,56.6,46.2,29.90,South,178,2.0,6.0,68,0.00,,OVC075,0.00,VWS V14.01,2013-02-07 17:20:00,
2013-02-07 11:25:00,56.7,46.3,29.90,SSE,165,4.0,7.0,68,0.00,,OVC075,0.00,VWS V14.01,2013-02-07 17:25:00,
2013-02-07 11:30:00,57.3,46.8,29.90,SSW,206,1.0,7.0,68,0.00,,OVC075,0.00,VWS V14.01,2013-02-07 17:30:00,
2013-02-07 11:35:00,57.8,46.9,29.90,SSW,211,2.0,4.0,67,0.00,,OVC014,0.00,VWS V14.01,2013-02-07 17:35:00,
2013-02-07 11:46:00,58.6,47.7,29.89,SSW,197,0.0,4.0,67,0.00,,OVC014,0.00,VWS V14.01,2013-02-07 17:46:00,
2013-02-07 11:55:00,58.4,47.5,29.89,SSW,194,2.0,7.0,67,0.00,,OVC014,0.00,VWS V14.01,2013-02-07 17:55:00,
2013-02-07 12:05:00,59.0,48.1,29.89,SW,227,7.0,7.0,67,0.00,,OVC014,0.00,VWS V14.01,2013-02-07 18:05:00,
2013-02-07 12:10:00,59.3,48.8,29.89,SW,221,3.0,7.0,68,0.00,,OVC014,0.00,VWS V14.01,2013-02-07 18:10:00,
2013-02-07 12:15:00,59.6,48.6,29.88,SSW,211,1.0,7.0,67,0.00,,OVC014,0.00,VWS V14.01,2013-02-07 18:15:00,
2013-02-07 12:20:00,59.8,48.8,29.88,SSW,199,0.0,6.0,67,0.00,,OVC014,0.00,VWS V14.01,2013-02-07 18:20:00,
2013-02-07 12:25:00,60.2,48.8,29.88,SW,228,2.0,4.0,66,0.00,,OVC014,0.00,VWS V14.01,2013-02-07 18:25:00,
2013-02-07 12:35:00,60.2,49.2,29.87,SW,220,0.0,5.0,67,0.00,,OVC016,0.00,VWS V14.01,2013-02-07 18:35:00,
2013-02-07 12:45:00,60.7,50.1,29.86,South,186,0.0,6.0,68,0.00,,OVC016,0.00,VWS V14.01,2013-02-07 18:45:00,
2013-02-07 12:50:00,61.3,50.3,29.86,SW,221,3.0,5.0,67,0.00,,OVC016,0.00,VWS V14.01,2013-02-07 18:50:00,
2013-02-07 13:00:00,61.5,49.6,29.86,South,175,3.0,6.0,65,0.00,,OVC016,0.00,VWS V14.01,2013-02-07 19:00:00,
2013-02-07 13:10:00,61.5,49.6,29.86,South,179,1.0,5.0,65,0.00,,OVC120,0.00,VWS V14.01,2013-02-07 19:10:00,
2013-02-07 13:15:00,61.5,50.5,29.85,SW,221,3.0,7.0,67,0.00,,OVC120,0.00,VWS V14.01,2013-02-07 19:15:00,
2013-02-07 13:20:00,61.6,50.5,29.85,SSW,211,0.0,5.0,67,0.00,,OVC120,0.00,VWS V14.01,2013-02-07 19:20:00,
2013-02-07 13:25:00,61.6,50.5,29.85,SW,223,1.0,6.0,67,0.00,,OVC120,0.00,VWS V14.01,2013-02-07 19:25:00,
2013-02-07 13:35:00,61.6,50.5,29.85,SSW,199,1.0,7.0,67,0.00,,BKN120,0.00,VWS V14.01,2013-02-07 19:35:00,
2013-02-07 13:40:00,61.8,51.1,29.85,South,171,1.0,7.0,68,0.00,,BKN120,0.00,VWS V14.01,2013-02-07 19:40:00,
2013-02-07 13:50:00,61.6,51.3,29.84,SSE,155,6.0,7.0,69,0.00,,BKN120,0.00,VWS V14.01,2013-02-07 19:50:00,
2013-02-07 13:55:00,61.6,51.3,29.84,South,175,5.0,7.0,69,0.00,,BKN120,0.00,VWS V14.01,2013-02-07 19:55:00,
2013-02-07 14:00:00,61.8,51.5,29.83,SSW,194,4.0,7.0,69,0.00,,BKN120,0.00,VWS V14.01,2013-02-07 20:00:00,
2013-02-07 14:10:00,61.6,51.3,29.83,SSE,150,6.0,8.0,69,0.00,,BKN120,0.00,VWS V14.01,2013-02-07 20:10:00,
2013-02-07 14:15:00,61.6,51.7,29.82,SSE,168,1.0,7.0,70,0.00,,BKN120,0.00,VWS V14.01,2013-02-07 20:15:00,
2013-02-07 14:25:00,61.5,52.4,29.82,SSE,151,4.0,7.0,72,0.00,,BKN120,0.00,VWS V14.01,2013-02-07 20:25:00,
2013-02-07 14:30:00,61.2,52.9,29.82,South,175,5.0,7.0,74,0.00,,BKN120,0.00,VWS V14.01,2013-02-07 20:30:00,
2013-02-07 14:35:00,60.9,53.3,29.82,SSE,163,4.0,6.0,76,0.00,,BKN120,0.00,VWS V14.01,2013-02-07 20:35:00,
2013-02-07 14:45:00,60.7,53.1,29.82,SSE,156,6.0,7.0,76,0.00,,BKN120,0.00,VWS V14.01,2013-02-07 20:45:00,
2013-02-07 14:50:00,60.7,53.1,29.82,SSW,198,2.0,6.0,76,0.00,,BKN024,0.00,VWS V14.01,2013-02-07 20:50:00,
2013-02-07 15:00:00,61.3,53.0,29.81,SSW,196,1.0,5.0,74,0.00,,BKN024,0.00,VWS V14.01,2013-02-07 21:00:00,
2013-02-07 15:10:00,61.3,52.6,29.81,SSW,192,1.0,6.0,73,0.00,,BKN024,0.00,VWS V14.01,2013-02-07 21:10:00,
2013-02-07 15:15:00,61.5,53.2,29.81,South,178,3.0,6.0,74,0.00,,BKN024,0.00,VWS V14.01,2013-02-07 21:15:00,
2013-02-07 15:25:00,62.1,53.0,29.81,SW,215,6.0,8.0,72,0.00,,BKN024,0.00,VWS V14.01,2013-02-07 21:25:00,
2013-02-07 15:30:00,61.6,52.9,29.81,South,175,2.0,11.0,73,0.00,,BKN024,0.00,VWS V14.01,2013-02-07 21:30:00,
2013-02-07 15:40:00,61.3,53.0,29.81,SSW,192,1.0,6.0,74,0.00,,OVC022,0.00,VWS V14.01,2013-02-07 21:40:00,
2013-02-07 15:50:00,61.3,53.0,29.81,West,278,1.0,5.0,74,0.00,,BKN055,0.00,VWS V14.01,2013-02-07 21:50:00,
2013-02-07 15:55:00,61.6,53.2,29.81,SSW,200,1.0,7.0,74,0.00,,BKN055,0.00,VWS V14.01,2013-02-07 21:55:00,
2013-02-07 16:00:00,61.8,53.4,29.81,SW,227,6.0,9.0,74,0.00,,BKN055,0.00,VWS V14.01,2013-02-07 22:00:00,
2013-02-07 16:10:00,61.6,53.2,29.81,SW,224,3.0,4.0,74,0.00,,BKN055,0.00,VWS V14.01,2013-02-07 22:10:00,
2013-02-07 16:15:00,61.3,53.3,29.81,SW,224,0.0,5.0,75,0.00,,BKN055,0.00,VWS V14.01,2013-02-07 22:15:00,
2013-02-07 16:25:00,60.9,53.3,29.81,SSW,208,1.0,6.0,76,0.00,,BKN055,0.00,VWS V14.01,2013-02-07 22:25:00,
2013-02-07 16:30:00,60.5,53.3,29.81,South,190,1.0,4.0,77,0.00,,BKN055,0.00,VWS V14.01,2013-02-07 22:30:00,
2013-02-07 16:35:00,60.4,53.2,29.81,South,180,3.0,7.0,77,0.00,,OVC050,0.00,VWS V14.01,2013-02-07 22:35:00,
2013-02-07 16:40:00,60.1,52.9,29.81,SSW,210,0.0,6.0,77,0.00,,OVC050,0.00,VWS V14.01,2013-02-07 22:40:00,
2013-02-07 16:45:00,59.9,53.0,29.81,SW,218,1.0,3.0,78,0.00,,OVC050,0.00,VWS V14.01,2013-02-07 22:45:00,
2013-02-07 16:55:00,59.6,53.1,29.81,SW,221,0.0,4.0,79,0.00,,OVC050,0.00,VWS V14.01,2013-02-07 22:55:00,
2013-02-07 17:05:00,59.2,53.0,29.81,SW,222,3.0,4.0,80,0.00,,OVC050,0.00,VWS V14.01,2013-02-07 23:05:00,
2013-02-07 17:15:00,58.9,53.1,29.81,SW,217,1.0,3.0,81,0.00,,OVC050,0.00,VWS V14.01,2013-02-07 23:15:00,
2013-02-07 17:21:00,58.9,53.4,29.81,SW,224,2.0,4.0,82,0.00,,OVC050,0.00,VWS V14.01,2013-02-07 23:21:00,
2013-02-07 17:30:00,58.7,53.2,29.81,SSW,209,4.0,4.0,82,0.00,,OVC050,0.00,VWS V14.01,2013-02-07 23:30:00,
2013-02-07 17:35:00,58.7,53.2,29.81,SW,218,3.0,4.0,82,0.00,,OVC070,0.00,VWS V14.01,2013-02-07 23:35:00,
2013-02-07 17:40:00,58.6,53.1,29.81,SW,219,0.0,3.0,82,0.00,,OVC070,0.00,VWS V14.01,2013-02-07 23:40:00,
2013-02-07 17:45:00,58.4,52.9,29.81,SW,219,0.0,2.0,82,0.00,,OVC070,0.00,VWS V14.01,2013-02-07 23:45:00,
2013-02-07 17:56:00,58.3,52.8,29.81,SW,216,0.0,2.0,82,0.00,,OVC070,0.00,VWS V14.01,2013-02-07 23:56:00,
2013-02-07 18:05:00,58.1,53.0,29.81,SW,216,0.0,0.0,83,0.00,,OVC070,0.00,VWS V14.01,2013-02-08 00:05:00,
2013-02-07 18:10:00,58.0,52.9,29.81,SW,216,0.0,2.0,83,0.00,,OVC070,0.00,VWS V14.01,2013-02-08 00:10:00,
2013-02-07 18:15:00,57.8,52.7,29.81,SW,216,0.0,1.0,83,0.00,,OVC070,0.00,VWS V14.01,2013-02-08 00:15:00,
2013-02-07 18:25:00,57.6,52.8,29.81,SSW,198,2.0,3.0,84,0.00,,-RA,0.00,VWS V14.01,2013-02-08 00:25:00,
2013-02-07 18:35:00,57.5,53.0,29.81,South,175,5.0,7.0,85,0.00,,-RA,0.00,VWS V14.01,2013-02-08 00:35:00,
2013-02-07 18:40:00,57.5,53.0,29.81,South,173,2.0,5.0,85,0.00,,-RA,0.00,VWS V14.01,2013-02-08 00:40:00,
2013-02-07 18:45:00,57.3,52.8,29.81,South,173,3.0,3.0,85,0.00,,-RA,0.00,VWS V14.01,2013-02-08 00:45:00,
2013-02-07 18:55:00,57.0,52.5,29.81,South,173,1.0,2.0,85,0.00,,-RA,0.00,VWS V14.01,2013-02-08 00:55:00,
2013-02-07 19:00:00,57.0,52.5,29.81,South,173,0.0,2.0,85,0.00,,-RA,0.00,VWS V14.01,2013-02-08 01:00:00,
2013-02-07 19:05:00,56.9,52.4,29.81,South,173,0.0,0.0,85,0.00,,-RA,0.00,VWS V14.01,2013-02-08 01:05:00,
2013-02-07 19:10:00,56.9,52.4,29.81,South,173,0.0,0.0,85,0.00,,-RA,0.00,VWS V14.01,2013-02-08 01:10:00,
2013-02-07 19:15:00,56.9,52.4,29.81,South,173,0.0,0.0,85,0.00,,-RA,0.00,VWS V14.01,2013-02-08 01:15:00,
2013-02-07 19:20:00,56.9,52.4,29.81,South,173,0.0,0.0,85,0.00,,-RA,0.00,VWS V14.01,2013-02-08 01:20:00,
2013-02-07 19:25:00,56.7,52.2,29.81,South,173,0.0,1.0,85,0.00,,-RA,0.00,VWS V14.01,2013-02-08 01:25:00,
2013-02-07 19:36:00,56.6,52.2,29.81,South,173,0.0,1.0,85,0.00,,-RA,0.00,VWS V14.01,2013-02-08 01:36:00,
2013-02-07 19:45:00,56.3,52.2,29.81,South,173,0.0,0.0,86,0.00,,-RA,0.00,VWS V14.01,2013-02-08 01:45:00,
2013-02-07 19:50:00,56.2,52.1,29.81,South,173,1.0,1.0,86,0.00,,-RA,0.00,VWS V14.01,2013-02-08 01:50:00,
2013-02-07 19:55:00,56.0,51.9,29.81,SSW,205,1.0,4.0,86,0.00,,-RA,0.00,VWS V14.01,2013-02-08 01:55:00,
2013-02-07 20:05:00,55.7,51.9,29.81,SSW,205,0.0,2.0,87,0.00,,-RA,0.00,VWS V14.01,2013-02-08 02:05:00,
2013-02-07 20:15:00,55.7,51.9,29.81,SSW,205,0.0,1.0,87,0.00,,-RA,0.00,VWS V14.01,2013-02-08 02:15:00,
2013-02-07 20:20:00,55.6,52.1,29.81,SSW,205,0.0,0.0,88,0.00,,-RA,0.00,VWS V14.01,2013-02-08 02:20:00,
2013-02-07 20:25:00,55.6,52.1,29.81,SSW,205,0.0,0.0,88,0.00,,-RA,0.00,VWS V14.01,2013-02-08 02:25:00,
2013-02-07 20:35:00,55.4,51.9,29.81,SW,229,2.0,3.0,88,0.00,,-RA,0.00,VWS V14.01,2013-02-08 02:35:00,
2013-02-07 20:40:00,55.4,52.2,29.81,WSW,252,3.0,4.0,89,0.01,,-RA,0.01,VWS V14.01,2013-02-08 02:40:00,
2013-02-07 20:45:00,55.6,52.4,29.82,WSW,253,4.0,4.0,89,0.02,,-RA,0.02,VWS V14.01,2013-02-08 02:45:00,
2013-02-07 20:55:00,55.6,52.4,29.82,West,275,3.0,5.0,89,0.05,,-RA,0.05,VWS V14.01,2013-02-08 02:55:00,
2013-02-07 21:00:00,55.4,52.5,29.82,West,272,5.0,5.0,90,0.06,,-RA,0.06,VWS V14.01,2013-02-08 03:00:00,
2013-02-07 21:05:00,55.4,52.5,29.82,West,271,1.0,5.0,90,0.07,,-RA,0.07,VWS V14.01,2013-02-08 03:05:00,
2013-02-07 21:10:00,55.4,52.5,29.82,West,271,5.0,6.0,90,0.08,,-RA,0.08,VWS V14.01,2013-02-08 03:10:00,
2013-02-07 21:15:00,55.6,53.0,29.84,West,278,3.0,6.0,91,0.10,,-RA,0.10,VWS V14.01,2013-02-08 03:15:00,
2013-02-07 21:20:00,55.7,53.1,29.84,WNW,294,5.0,8.0,91,0.10,,-RA,0.10,VWS V14.01,2013-02-08 03:20:00,
2013-02-07 21:30:00,55.6,53.0,29.83,NW,322,3.0,7.0,91,0.11,,-RA,0.11,VWS V14.01,2013-02-08 03:30:00,
2013-02-07 21:35:00,55.4,52.8,29.83,NNW,331,2.0,4.0,91,0.11,,RA,0.11,VWS V14.01,2013-02-08 03:35:00,
2013-02-07 21:45:00,55.3,52.7,29.83,NNW,332,2.0,5.0,91,0.11,,RA,0.12,VWS V14.01,2013-02-08 03:45:00,
2013-02-07 21:50:00,55.1,52.5,29.83,NNW,331,3.0,5.0,91,0.10,,RA,0.12,VWS V14.01,2013-02-08 03:50:00,
2013-02-07 21:55:00,55.0,52.4,29.83,NNW,331,1.0,4.0,91,0.08,,RA,0.12,VWS V14.01,2013-02-08 03:55:00,
2013-02-07 22:00:00,55.0,52.4,29.84,NW,315,2.0,4.0,91,0.07,,RA,0.12,VWS V14.01,2013-02-08 04:00:00,
2013-02-07 22:05:00,54.8,52.2,29.84,NW,315,0.0,3.0,91,0.06,,RA,0.12,VWS V14.01,2013-02-08 04:05:00,
2013-02-07 22:15:00,54.7,52.1,29.84,NW,315,1.0,3.0,91,0.04,,RA,0.12,VWS V14.01,2013-02-08 04:15:00,
2013-02-07 22:25:00,54.5,51.9,29.84,NW,314,1.0,4.0,91,0.02,,RA,0.12,VWS V14.01,2013-02-08 04:25:00,
2013-02-07 22:30:00,54.5,51.9,29.84,NW,312,1.0,3.0,91,0.01,,RA,0.12,VWS V14.01,2013-02-08 04:30:00,
2013-02-07 22:40:00,54.4,51.8,29.84,NW,317,0.0,5.0,91,0.01,,OVC100,0.12,VWS V14.01,2013-02-08 04:40:00,
2013-02-07 22:45:00,54.4,52.1,29.85,NW,317,1.0,5.0,92,0.00,,OVC100,0.12,VWS V14.01,2013-02-08 04:45:00,
2013-02-07 22:50:00,54.2,51.9,29.85,NW,312,3.0,4.0,92,0.00,,OVC100,0.12,VWS V14.01,2013-02-08 04:50:00,
2013-02-07 23:00:00,54.2,51.9,29.85,NW,321,1.0,7.0,92,0.00,,OVC100,0.12,VWS V14.01,2013-02-08 05:00:00,
2013-02-07 23:05:00,54.2,51.6,29.85,NNW,334,3.0,7.0,91,0.00,,OVC100,0.12,VWS V14.01,2013-02-08 05:05:00,
2013-02-07 23:15:00,54.1,51.5,29.86,NNW,331,4.0,13.0,91,0.00,,OVC100,0.12,VWS V14.01,2013-02-08 05:15:00,
2013-02-07 23:20:00,53.9,51.3,29.86,NNW,331,4.0,9.0,91,0.00,,OVC100,0.12,VWS V14.01,2013-02-08 05:20:00,
2013-02-07 23:25:00,53.9,51.0,29.86,NNW,337,6.0,10.0,90,0.00,,OVC100,0.12,VWS V14.01,2013-02-08 05:25:00,
2013-02-07 23:30:00,53.8,50.9,29.87,NW,309,6.0,12.0,90,0.00,,OVC100,0.12,VWS V14.01,2013-02-08 05:30:00,
2013-02-07 23:40:00,53.2,49.4,29.87,NNW,328,8.0,12.0,87,0.00,,OVC023,0.12,VWS V14.01,2013-02-08 05:40:00,
2013-02-07 23:45:00,52.9,48.8,29.87,NW,326,9.0,16.0,86,0.00,,OVC023,0.12,VWS V14.01,2013-02-08 05:45:00,
2013-02-07 23:55:00,52.6,48.2,29.87,NNW,348,10.0,14.0,85,0.00,,OVC023,0.12,VWS V14.01,2013-02-08 05:55:00,